Weather History for KGVL - January, 2012

Change the Weather History Date:

Friday, January 13, 2012

  Actual Average Record
Temperature  
Mean Temperature 29 °F 41 °F  
Max Temperature 33 °F 50 °F 76 °F (1932)
Min Temperature 25 °F 33 °F 14 °F (1962)
Degree Days  
Heating Degree Days 36 24  
Month to date heating degree days 312  
Since 1 July heating degree days 1508  
Moisture  
Dew Point 17 °F    
Average Humidity 61    
Maximum Humidity 69    
Minimum Humidity 50    
Precipitation  
Precipitation 0.00 in 0.15 in 1.40 in (1993)
Month to date precipitation 1.74  
Year to date precipitation 1.74  
Sea Level Pressure  
Sea Level Pressure 30.03 in    
Wind  
Wind Speed 17 mph (West)    
Max Wind Speed 23 mph    
Max Gust Speed 34 mph    
Visibility 10 miles    
Events      
T = Trace of Precipitation, MM = Missing Value Source: NWS Daily Summary

Daily Weather History Graph

Daily Weather History Graph

Search for Another Location

Airport or City:

Trip Planner

Search our weather history database for the weather conditions in past years. The results will help you decide how hot, cold, wet, or windy it might be!

Date:

Astronomy

Jan. 13, 2012 Rise Set
Actual Time 7:41 AM EST 5:46 PM EST
Civil Twilight 7:14 AM EST 6:13 PM EST
Nautical Twilight 6:43 AM EST 6:44 PM EST
Astronomical Twilight 6:13 AM EST 7:14 PM EST
Moon 10:42 PM EST (1/13) 10:09 AM EST (1/13)
Length of Visible Light 10h 59m
Length of Day
10h 04m
Waning Gibbous, 79% of the Moon is Illuminated
Jan 13
Waning Gibbous
Jan 16
Last Quarter
Jan 23
New
Jan 30
First Quarter
Feb 7
Full

Hourly Weather History & Observations

Time (EST) Temp. Windchill Dew Point Humidity Pressure Visibility Wind Dir Wind Speed Gust Speed Precip Events Conditions
12:53 AM 27.0 °F 14.3 °F 17.1 °F 66% 29.91 in 10.0 mi West 17.3 mph 28.8 mph N/A   Scattered Clouds
1:34 AM 28.4 °F 15.1 °F 17.6 °F 64% 29.91 in 10.0 mi West 20.7 mph 27.6 mph N/A   Overcast
1:53 AM 28.0 °F 16.1 °F 18.0 °F 66% 29.92 in 10.0 mi West 16.1 mph 31.1 mph N/A   Overcast
2:29 AM 28.4 °F 14.4 °F 15.8 °F 59% 29.93 in 10.0 mi West 23.0 mph 34.5 mph N/A   Overcast
2:53 AM 28.0 °F 15.7 °F 16.0 °F 61% 29.93 in 10.0 mi WNW 17.3 mph 32.2 mph N/A   Overcast
3:53 AM 27.0 °F 13.9 °F 17.1 °F 66% 29.93 in 10.0 mi West 18.4 mph 27.6 mph N/A   Overcast
4:14 AM 26.6 °F 13.1 °F 17.6 °F 69% 29.92 in 10.0 mi West 19.6 mph 28.8 mph N/A   Mostly Cloudy
4:26 AM 26.6 °F 12.7 °F 15.8 °F 64% 29.92 in 10.0 mi West 20.7 mph 27.6 mph N/A   Mostly Cloudy
4:53 AM 26.1 °F 14.0 °F 16.0 °F 66% 29.94 in 10.0 mi West 15.0 mph 25.3 mph N/A   Mostly Cloudy
5:53 AM 25.0 °F 11.3 °F 14.0 °F 63% 29.96 in 10.0 mi West 18.4 mph 27.6 mph N/A   Partly Cloudy
6:53 AM 26.1 °F 12.7 °F 15.1 °F 63% 29.98 in 10.0 mi West 18.4 mph 26.5 mph N/A   Overcast
7:53 AM 26.1 °F 15.0 °F 15.1 °F 63% 30.01 in 10.0 mi West 12.7 mph 29.9 mph N/A   Overcast
8:53 AM 26.1 °F 14.0 °F 16.0 °F 66% 30.04 in 10.0 mi West 15.0 mph 25.3 mph N/A   Overcast
9:23 AM 26.6 °F 14.3 °F 17.6 °F 69% 30.02 in 10.0 mi West 16.1 mph 24.2 mph N/A   Overcast
9:53 AM 27.0 °F 16.1 °F 14.0 °F 58% 30.07 in 10.0 mi West 12.7 mph 25.3 mph N/A   Scattered Clouds
10:53 AM 30.0 °F 18.7 °F 16.0 °F 56% 30.10 in 10.0 mi WNW 16.1 mph 25.3 mph N/A   Overcast
11:53 AM 30.0 °F 17.9 °F 14.0 °F 51% 30.09 in 10.0 mi West 18.4 mph 26.5 mph N/A   Partly Cloudy
12:53 PM 30.9 °F 19.8 °F 15.1 °F 52% 30.09 in 10.0 mi West 16.1 mph 26.5 mph N/A   Clear
1:53 PM 32.0 °F 22.1 °F 15.1 °F 50% 30.07 in 10.0 mi West 13.8 mph 27.6 mph N/A   Clear
2:53 PM 33.1 °F 22.6 °F 17.1 °F 52% 30.07 in 10.0 mi West 16.1 mph 21.9 mph N/A   Clear
3:53 PM 33.1 °F 23.4 °F 17.1 °F 52% 30.08 in 10.0 mi West 13.8 mph - N/A   Clear
4:53 PM 33.1 °F 23.4 °F 18.0 °F 54% 30.11 in 10.0 mi West 13.8 mph 21.9 mph N/A   Clear
5:53 PM 30.9 °F 20.7 °F 18.0 °F 59% 30.12 in 10.0 mi West 13.8 mph 19.6 mph N/A   Clear
6:53 PM 30.0 °F 22.4 °F 18.0 °F 61% 30.13 in 10.0 mi West 8.1 mph 19.6 mph N/A   Clear
7:53 PM 30.0 °F 21.7 °F 19.0 °F 64% 30.16 in 10.0 mi West 9.2 mph - N/A   Clear
8:53 PM 28.9 °F 18.6 °F 18.0 °F 64% 30.17 in 10.0 mi West 12.7 mph - N/A   Clear
10:53 PM 28.0 °F 18.6 °F 19.0 °F 69% 30.18 in 10.0 mi WNW 10.4 mph 19.6 mph N/A   Clear